Regional Weather Roundup
Issued by NWS

Home | Current Version | Previous Version | Graphics & Text | Print | Product List | Glossary On
Versions: 1 2 3 4 5 6 7 8 9 10 11 12 13 14 15 16 17 18 19 20 21 22 23 24 25 26 27 28 29 30 31 32 33 34 35 36 37 38 39 40 41 42 43 44 45 46 47 48 49 50
000
ASUS43 KMKX 270821
RWRWI

WISCONSIN REGIONAL WEATHER ROUNDUP
NATIONAL WEATHER SERVICE MILWAUKEE/SULLIVAN WI
300 AM CDT MON APR 27 2015

NOTE: "FAIR" INDICATES FEW OR NO CLOUDS BELOW 12,000 FEET WITH NO
SIGNIFICANT WEATHER AND/OR OBSTRUCTIONS TO VISIBILITY.

WIZ001-002-006>008-014>016-023>028-270900-
NORTHWEST WISCONSIN

CITY           SKY/WX    TMP DP  RH WIND       PRES   REMARKS
SUPERIOR ARPT  CLEAR     27  26  97 CALM      30.20F
ASHLAND        CLEAR     28  26  92 SW5       30.20R WCI  23
HAYWARD        CLEAR     30  25  81 CALM      30.18R
SIREN          CLEAR     31  23  73 CALM      30.18F
CUMBERLAND     CLEAR     34  27  75 N7        30.16S WCI  28
RICE LAKE      CLEAR     32  28  83 CALM      30.18S
CHETEK         CLEAR     37  29  72 NW3       30.16F
LADYSMITH      CLEAR     35  26  71 NW5       30.17S WCI  31
EAU CLAIRE     CLEAR     37  25  61 N3        30.15S
MENOMONIE      CLEAR     40  25  53 N3        30.16S
NEW RICHMOND   CLEAR     35  28  75 CALM      30.17S
OSCEOLA        CLEAR     34  28  79 CALM      30.20S
$$

WIZ003>005-009-010-017-018-270900-
NORTH CENTRAL WISCONSIN

CITY           SKY/WX    TMP DP  RH WIND       PRES   REMARKS
MANITOWISH WTR CLEAR     33  28  79 CALM      30.13F
ARBOR VITAE    CLEAR     32  27  81 CALM      30.13S
WOODRUFF       CLEAR     32  27  81 CALM      30.13S
RHINELANDER    CLEAR     35  26  69 CALM      30.13S
EAGLE RIVER    CLEAR     31  25  76 N3        30.12S
LAND O LAKES   CLEAR     32  27  83 CALM      30.13F
PHILLIPS       CLEAR     29  25  83 CALM      30.14S
TOMAHAWK       CLEAR     27  25  90 CALM      30.14S
MEDFORD        CLEAR     35  28  75 CALM      30.13S
MERRILL        CLEAR     32  28  85 NW3       30.13S
$$

WIZ029-030-035-036-043>047-270900-
CENTRAL WISCONSIN

CITY           SKY/WX    TMP DP  RH WIND       PRES   REMARKS
WAUSAU         CLEAR     40  30  67 NW3       30.12R
MOSINEE        CLEAR     37  32  81 N7        30.13F WCI  32
MARSHFIELD     CLEAR     40  29  64 NE3       30.12S
STEVENS POINT  CLEAR     31  25  80 CALM      30.13S
WAUPACA        CLEAR     36  31  82 NW3       30.13R
WAUTOMA        CLEAR     31  28  88 CALM      30.13R
WISC RAPIDS    CLEAR     36  27  69 CALM      30.13F
CAMP DOUGLAS   CLEAR     30  30  99 W3        30.12R
$$

WIZ011>013-019>022-031-037>040-048>050-270900-
NORTHEAST WISCONSIN

CITY           SKY/WX    TMP DP  RH WIND       PRES   REMARKS
ANTIGO         CLEAR     33  29  84 CALM      30.11S
SHAWANO        CLEAR     38  31  75 W3        30.11S
OCONTO         CLEAR     40  28  64 N3        30.09S
STURGEON BAY   MOCLDY    39  28  65 NW7       30.11R WCI  34
GREEN BAY      CLEAR     40  30  67 NW7       30.10S
MANITOWOC      PTCLDY    41  32  70 N8        30.08S
APPLETON       CLEAR     37  32  81 NW8       30.10S WCI  31
CLINTONVILLE   CLEAR     36  30  80 NW5       30.11S WCI  32
OSHKOSH        CLEAR     37  30  75 W5        30.09F WCI  33
$$

WIZ032>034-041-042-053>061-270900-
SOUTHWEST WISCONSIN

CITY           SKY/WX    TMP DP  RH WIND       PRES   REMARKS
LA CROSSE      CLEAR     43  30  60 NW9       30.13R
SPARTA         CLEAR     32  27  82 CALM      30.14R
VIROQUA        CLEAR     41  28  60 NE3       30.11S
BOSCOBEL       CLEAR     38  30  73 CALM      30.13R
PRAIRIE DU CHI CLEAR     38  32  79 CALM      30.12R
PLATTEVILLE    CLEAR     39  29  68 E8        30.10S WCI  33
$$

WIZ056-057-062-063-064-067-068-270900-
SOUTH CENTRAL WISCONSIN

CITY           SKY/WX    TMP DP  RH WIND       PRES   REMARKS
REEDSBURG      CLEAR     38  30  71 CALM      30.11S
BARABOO/DELLS  CLEAR     34  28  79 CALM      30.11S
LONE ROCK      CLEAR     40  29  64 CALM      30.12R
MINERAL POINT  CLEAR     41  28  60 E3        30.11R
MADISON        CLEAR     34  28  79 CALM      30.11S
MIDDLETON      CLEAR     34  30  85 CALM      30.11S
WATERTOWN      CLEAR     34  33  94 CALM      30.09S
MONROE         CLEAR     36  30  80 NE8       30.10S WCI  29
JANESVILLE     CLEAR     36  28  75 CALM      30.10R
$$

WIZ051-052-058>065-066-070>072-270900-
SOUTHEAST WISCONSIN

CITY           SKY/WX    TMP DP  RH WIND       PRES   REMARKS
MILWAUKEE      CLEAR     39  29  67 NW6       30.08S WCI  35
WAUKESHA       CLEAR     34  30  86 W5        30.10R WCI  30
MILWAUKEE/TIMM CLEAR     36  28  75 NW3       30.09S
RACINE         CLEAR     40  30  67 N7        30.09S
BURLINGTON     CLEAR     33  28  83 N3        30.08F
KENOSHA        CLEAR     39  30  70 NW6       30.08R WCI  35
FOND DU LAC    CLEAR     37  30  75 NW8       30.10S WCI  31
SHEBOYGAN      CLEAR     40  30  67 N8        30.08S WCI  34
WEST BEND      CLEAR     36  30  80 NW5       30.08S WCI  32
JUNEAU         CLEAR     35  30  82 CALM      30.11R
$$

LSZ147-162-270900-
LAKE SUPERIOR

STATION/POSITION TIME  TEMP    WIND        PRES    WAVE
                       AIR SEA DIR/SP/G            HT/PER
                 (UTC) (F)     (DEG/KT/KT) (MB)    (FT/S)
W MID LAKE BUOY  0750   38 35  310/  8/ 10 1022.7F   0
DEVILS ISLAND    0800   38     310/  4/  5 1023.0S
PORT WING        0700   31     160/  2/  3 1022.7S
SAXON HARBOR     0740   29      CALM  /  2 1021.7F
$$

LMZ867-665-643>646-270900-
LAKE MICHIGAN

STATION/POSITION TIME  TEMP    WIND        PRES    WAVE
                       AIR SEA DIR/SP/G            HT/PER
                 (UTC) (F)     (DEG/KT/KT) (MB)    (FT/S)
CHAMBERS ISLAND  0700   41     320/  7/  8 1019.0F
NORTHPORT PIER   0700   40     320/  8/ 10 1018.6S
SISTER BAY       0702   39     360/  6/  6   N/A
KEWAUNEE LAKESHO 0700   43     340/  7/ 10 1017.8S
SHEBOYGAN LAKESH 0800   45     340/ 14/ 15 1019.2S
PORT WASHINGTON  0700   41     300/  6/  9 1019.3S
MILWAUKEE LAKESH 0800   42     320/  8/ 11   N/A
KENOSHA   LAKESH 0800   42     340/ 10/ 13 1018.3S
$$

TC  - TEMPERATURE IN CELSIUS
VSB - VISIBILITY IN STATUTE MILES
WCI - WIND CHILL INDEX
HX  - HEAT INDEX



USA.gov is the U.S. government's official web portal to all federal, state and local government web resources and services.